sat.trackr.live / text

‹ back to catalog

ELEKTRO-L 2

NORAD 41105 · 2015-074A

PAYLOAD ACTIVE UNKNOWN

§ Identity

Operator
Country
CIS
Launch date
2015-12-11
Launch site
TYMSC
Launch vehicle
Mass (kg)
RCS (m²)
0.00

Purposes: comms, earth_obs

External: N2YO · Heavens-Above · Gunter

§ Orbital elements

Epoch: 2026-09-12T18:58:01.812000Z

Period
1,436.09 min
Inclination
6.9091°
Eccentricity
0.0001801
Mean motion
1.00272044 rev/d
Perigee alt
35,778.9 km
Apogee alt
35,794.1 km
Semi-major
42,164.7 km
B*
0.0000e+0
RAAN
69.4129°
Arg perigee
196.4068°
Mean anomaly
355.9605°
Rev number
3,938

§ Raw data

ELEKTRO-L 21 41105U 15074A   26255.79029875 -.00000127  00000+0  00000+0 0  99942 41105   6.9091  69.4129 0001801 196.4068 355.9605  1.00272044 39389

JSON: /api/v1/satellites/41105 · /tle

For live sub-satellite position, see the globe view (requires WebGL).

§ Visibility from observer

Set your observer location to see the next 7 days of passes ≥ 10°. The values pass through the URL so the page stays shareable.

No JS? Fill the form by hand. The geolocation button needs JavaScript.

§ Radio — SatNOGS DB

ModeDescriptionDownlinkUplink
FM 7502 LHCP 7.502 GHz
FSK GGAK-E 2 (665400 bd) 1.693 GHz
FM SARSAT - L-Band 1.545 GHz

3 transmitters · refreshed weekly from db.satnogs.org